VESSELSAT 1 [-]

Last updated on Fri Dec 29 2023 00:02:54 GMT+0000 (Coordinated Universal Time)

1 37840U 11058C 23362.50102406 .00000423 00000+0 86526-4 0 9990 2 37840 19.9613 100.6854 0013909 44.5117 315.6403 14.11097610630631
UTC large
Height (km)
Speed (km/s)
/
Latitude / Longitude
Inclination (degrees)
Orbital Period (minutes)
Azimuth
Elevation
Range (km)
Doppler Factor

Next 0 passes for location: London (51.5072 / 0.1276)

Sorry there are no passes over London.
VESSELSAT 1 [-]